Tracking 27086 objects as of 22-Mar-2023
HD Live streaming from Space Station
objects crossing your sky now

ONEWEB-0646

Track ONEWEB-0646 now!
10-day predictions
ONEWEB-0646 is classified as:


NORAD ID: 55810
Int'l Code: 2023-029Q
Perigee: 596.3 km
Apogee: 610.9 km
Inclination: 86.5 °
Period: 96.6 minutes
Semi major axis: 6974 km
RCS: Unknown
Launch date: March 9, 2023
Source: United Kingdom (UK)
Launch site: AIR FORCE EASTERN TEST RANGE (AFETR)
Your satellite tracking list
Your tracking list is empty




NASA's NSSDC Master Catalog

Two Line Element Set (TLE):
1 55810U 23029Q   23081.59367197 -.00183187  00000-0 -19288-1 0  9995
2 55810  86.5139 193.6876 0010420 168.9685 191.1772 14.90471218  2594
Source of the keplerian elements: AFSPC